Terminal Aerodrome Forecast
Issued by NWS Kansas City/Pleasant Hill, MO

Home | Current Version | Previous Version | Text Only | Print | Product List | Glossary On
Versions: 1 2 3 4 5 6 7 8 9 10 11 12 13 14 15 16
000
FTUS43 KEAX 102300
TAFMCI
TAF
KMCI 102320Z 1100/1124 15011KT P6SM FEW050 SCT250
     FM111300 18012KT P6SM SCT100=

USA.gov is the U.S. government's official web portal to all federal, state and local government web resources and services.